Location: Wawayanda State Park
(41.1833°N, 74.4333°W)
Time: 07:48:03
(UTC-04:00)

RESURS DK-1 - Visible Passes

Search period start: 03 May 2015 00:00
Search period end: 13 May 2015 00:00
Orbit: 561 x 563 km, 69.9° (Epoch: 03 May)

Date Brightness Start Highest point End Pass type
(mag) Time Alt. Az. Time Alt. Az. Time Alt. Az.
03 May 2.7 05:17:10 10° SSW 05:21:17 69° ESE 05:25:25 10° NNE visible
04 May 2.4 05:16:25 10° SSW 05:20:34 84° WNW 05:24:44 10° NNE visible
05 May 5.2 03:41:02 10° ESE 03:42:13 11° ESE 03:43:39 10° E visible
05 May 2.5 05:15:47 10° SW 05:19:53 60° WNW 05:23:59 10° NNE visible
06 May 4.9 03:38:57 10° SE 03:41:25 16° ESE 03:44:02 10° ENE visible
06 May 2.9 05:15:16 10° SW 05:19:13 43° WNW 05:23:11 10° NNE visible
07 May 4.4 03:38:27 15° SE 03:40:37 22° ESE 03:43:52 10° NE visible
07 May 3.4 05:14:51 10° WSW 05:18:35 31° WNW 05:22:19 10° N visible
08 May 3.9 03:38:06 22° SSE 03:39:50 30° ESE 03:43:30 10° NE visible
08 May 3.8 05:14:35 10° WSW 05:17:59 24° NW 05:21:21 10° N visible
09 May 3.3 03:37:41 31° SSE 03:39:04 42° ESE 03:43:01 10° NE visible
09 May 4.2 05:14:28 10° W 05:17:25 18° NW 05:20:18 10° N visible
10 May 2.7 03:37:13 43° SSE 03:38:19 60° ESE 03:42:24 10° NNE visible
11 May 2.3 03:36:41 54° SSW 03:37:34 85° ESE 03:41:45 10° NNE visible
12 May 2.4 03:36:06 54° WSW 03:36:52 68° WNW 03:41:01 10° NNE visible
